Regional Weather Roundup
Issued by NWS

Home | Current Version | Previous Version | Text Only | Print | Product List | Glossary Off
Versions: 1 2 3 4 5 6 7 8 9 10 11 12 13 14 15 16 17 18 19 20 21 22 23 24 25 26 27

000
ASUS45 KCYS 260310
RWRWY

WYOMING REGIONAL WEATHER ROUNDUP
NATIONAL WEATHER SERVICE CHEYENNE WY
900 PM MDT MON JUL 25 2016

NOTE:  "FAIR" INDICATES FEW OR NO CLOUDS BELOW 12,000 FEET
WITH NO SIGNIFICANT WEATHER AND/OR OBSTRUCTIONS TO VISIBILITY.

WYZ001-260400-
YELLOWSTONE NATIONAL PARK

CITY           SKY/WX    TMP DP  RH WIND       PRES   REMARKS
LK YELLOWSTONE   N/A     61  31  32 NW3       30.34S
W YELLOWSTONE  NOT AVBL

$$
WYZ002>013-054>058-071-098>099-260400-
NORTHERN WYOMING

CITY           SKY/WX    TMP DP  RH WIND       PRES   REMARKS
JACKSON        FAIR      73  25  16 SW7       30.21S
CODY           FAIR      82  30  15 CALM      30.07R
GREYBULL       FAIR      85  32  15 SW6       29.94S
WORLAND        FAIR      81  28  14 NE3       29.97S
SHERIDAN       FAIR      76  48  37 CALM      29.98R
BUFFALO        FAIR      79  37  22 W6        30.08R
GILLETTE       FAIR      83  37  19 S9        30.02F
HULETT         FAIR      75  45  33 E8        30.05R
NEWCASTLE      FAIR      82  43  24 SE13G18   30.04S

$$
WYZ014>020-022>026-101>103-260400-
CENTRAL WYOMING

CITY           SKY/WX    TMP DP  RH WIND       PRES   REMARKS
BIG PINEY      FAIR      71  26  18 N13       30.24S
PINEDALE       FAIR      66  34  30 NW3       30.26R
DUBOIS         FAIR      72  19  14 NW10      30.26R
LANDER         FAIR      87  26  11 SW3       30.08R
RIVERTON       FAIR      83  25  12 N12       30.09R
CASPER         FAIR      76  33  21 N10       30.07S
DOUGLAS          N/A    N/A N/A N/A MISG      30.06S

$$
WYZ021-027>030-104>119-260400-
SOUTHERN WYOMING

CITY           SKY/WX    TMP DP  RH WIND       PRES   REMARKS
EVANSTON       FAIR      75  22  13 W9        30.26S
KEMMERER         N/A    N/A N/A N/A NW8       30.27S
FORT BRIDGER   FAIR      79  24  13 SW8       30.28R
ROCK SPRINGS   FAIR      76  30  18 SW9       30.24F
DIXON          FAIR      79  31  17 S12G17    30.26R
RAWLINS        FAIR      82  21  10 N9        30.23R
SARATOGA       FAIR      77  25  14 SW12      30.25S
LARAMIE        FAIR      68  28  22 W6        30.25S
CHEYENNE       FAIR      75  54  47 S13       30.19R
TORRINGTON     FAIR      80  59  48 SE14      30.04R
PINE BLUFFS    FAIR      73  61  64 SE13      30.14R

$$




USA.gov is the U.S. government's official web portal to all federal, state and local government web resources and services.